sat.trackr.live / text

‹ back to catalog

UM5-RIBAT

NORAD 60554 · 2024-149CQ

PAYLOAD ACTIVE UNKNOWN

§ Identity

Operator
Country
MA
Launch date
2024-08-16
Launch site
AFWTR
Launch vehicle
Mass (kg)
RCS (m²)

External: N2YO · Heavens-Above · Gunter

§ Orbital elements

Epoch: 2026-05-25T03:21:26.192736Z

Period
95.94 min
Inclination
97.6649°
Eccentricity
0.0003801
Mean motion
15.00920395 rev/d
Perigee alt
561.4 km
Apogee alt
566.7 km
Semi-major
6,942.2 km
B*
2.0579e-4
RAAN
223.2513°
Arg perigee
98.5055°
Mean anomaly
261.6600°
Rev number
9,673

§ Raw data

UM5-RIBAT1 60554U 24149CQ  26145.13988649  .00002562  00000+0  20579-3 0  99962 60554  97.6649 223.2513 0003801  98.5055 261.6600 15.00920395 96735

JSON: /api/v1/satellites/60554 · /tle

For live sub-satellite position, see the globe view (requires WebGL).

§ Visibility from observer

Set your observer location to see the next 7 days of passes ≥ 10°. The values pass through the URL so the page stays shareable.

No JS? Fill the form by hand. The geolocation button needs JavaScript.

§ Radio — SatNOGS DB

ModeDescriptionDownlinkUplink
GFSK Mode U - GFSK2k4 401.100 MHz
FSK AX.100 Mode 5 Mode U - Telemetry 401.600 MHz
BPSK S-band telemetry 2.208 GHz

3 transmitters · refreshed weekly from db.satnogs.org